Total_Precipitation_Accumulation
1.29 1.35 1.35 1.36 1.34 1.20 1.14 1.05 0.89 0.72 0.61 0.49 0.38 0.30 0.30 0.30 0.36 0.35 0.27 0.23 0.18 0.16 0.12 0.09 0.10 0.09 0.09 0.09 0.08 0.07 0.07 0.07 0.07 0.07 0.07 0.07 0.07 0.06
1.26 1.33 1.30 1.28 1.24 1.15 1.10 1.09 0.97 0.76 0.63 0.55 0.44 0.37 0.38 0.35 0.39 0.38 0.36 0.34 0.22 0.17 0.13 0.12 0.11 0.09 0.08 0.06 0.04 0.03 0.03 0.03 0.03 0.04 0.04 0.04 0.04 0.04
0.80 0.86 1.03 1.16 1.16 1.15 1.13 1.12 1.08 0.92 0.73 0.69 0.52 0.48 0.50 0.45 0.44 0.39 0.38 0.39 0.32 0.25 0.20 0.17 0.14 0.11 0.09 0.08 0.05 0.03 0.02 0.02 0.02 0.03 0.03 0.04 0.05 0.05
0.66 0.65 0.71 0.85 0.94 1.01 1.07 1.07 1.08 1.04 0.90 0.87 0.80 0.63 0.58 0.54 0.56 0.55 0.47 0.46 0.47 0.45 0.39 0.29 0.21 0.16 0.12 0.09 0.06 0.03 0.02 0.01 0.02 0.02 0.03 0.03 0.05 0.06
0.62 0.63 0.65 0.67 0.75 0.81 0.92 1.00 1.04 1.07 1.00 0.86 0.91 0.87 0.71 0.64 0.58 0.55 0.53 0.57 0.55 0.51 0.53 0.49 0.40 0.30 0.23 0.17 0.13 0.08 0.05 0.04 0.05 0.05 0.05 0.05 0.05 0.05
0.62 0.65 0.63 0.61 0.68 0.84 0.95 1.00 0.99 0.97 0.98 0.94 0.94 0.93 0.81 0.67 0.60 0.59 0.64 0.68 0.65 0.53 0.46 0.47 0.46 0.40 0.32 0.26 0.20 0.16 0.13 0.10 0.09 0.08 0.08 0.08 0.08 0.09
0.53 0.54 0.58 0.62 0.63 0.71 0.83 0.99 0.96 0.96 0.95 0.95 0.92 0.83 0.71 0.60 0.59 0.61 0.62 0.69 0.63 0.60 0.55 0.48 0.45 0.40 0.35 0.30 0.26 0.24 0.20 0.18 0.16 0.14 0.13 0.13 0.12 0.14
0.52 0.56 0.55 0.52 0.51 0.52 0.52 0.68 0.79 0.87 0.92 0.88 0.85 0.78 0.71 0.63 0.67 0.63 0.53 0.51 0.53 0.58 0.49 0.52 0.46 0.42 0.42 0.38 0.40 0.42 0.37 0.31 0.26 0.21 0.19 0.18 0.17 0.18
0.47 0.56 0.63 0.57 0.57 0.61 0.53 0.52 0.54 0.57 0.63 0.67 0.71 0.68 0.66 0.60 0.60 0.59 0.54 0.49 0.42 0.41 0.35 0.38 0.39 0.36 0.35 0.32 0.29 0.28 0.28 0.26 0.23 0.21 0.20 0.19 0.19 0.19
0.50 0.51 0.60 0.63 0.65 0.74 0.69 0.68 0.58 0.49 0.47 0.46 0.53 0.53 0.48 0.53 0.57 0.65 0.65 0.49 0.37 0.31 0.25 0.23 0.24 0.23 0.20 0.19 0.18 0.15 0.14 0.15 0.16 0.16 0.15 0.15 0.14 0.14
0.46 0.50 0.58 0.64 0.80 0.85 0.83 0.79 0.65 0.52 0.52 0.57 0.57 0.56 0.54 0.55 0.55 0.58 0.57 0.49 0.42 0.39 0.31 0.22 0.18 0.16 0.13 0.11 0.10 0.09 0.08 0.08 0.08 0.08 0.08 0.08 0.09 0.10
0.49 0.51 0.69 0.70 0.78 0.77 0.74 0.79 0.74 0.57 0.48 0.52 0.51 0.50 0.47 0.50 0.58 0.60 0.65 0.65 0.53 0.45 0.35 0.27 0.24 0.22 0.20 0.16 0.10 0.07 0.06 0.06 0.06 0.06 0.06 0.07 0.07 0.07
0.45 0.47 0.44 0.56 0.58 0.63 0.65 0.64 0.77 0.61 0.53 0.52 0.45 0.39 0.36 0.37 0.41 0.45 0.54 0.61 0.58 0.49 0.41 0.34 0.30 0.28 0.22 0.18 0.13 0.09 0.06 0.05 0.05 0.05 0.05 0.06 0.06 0.05
0.30 0.38 0.37 0.43 0.48 0.53 0.50 0.59 0.68 0.59 0.50 0.50 0.41 0.34 0.32 0.29 0.27 0.28 0.32 0.36 0.42 0.43 0.40 0.33 0.29 0.25 0.19 0.15 0.13 0.10 0.07 0.05 0.04 0.05 0.05 0.05 0.04 0.04
0.18 0.30 0.35 0.40 0.38 0.38 0.45 0.55 0.55 0.54 0.57 0.50 0.44 0.35 0.27 0.23 0.17 0.17 0.20 0.21 0.23 0.24 0.26 0.31 0.33 0.29 0.21 0.15 0.09 0.07 0.07 0.07 0.05 0.04 0.05 0.05 0.04 0.03
0.15 0.27 0.38 0.43 0.40 0.39 0.41 0.47 0.50 0.53 0.58 0.50 0.40 0.30 0.21 0.17 0.15 0.14 0.15 0.14 0.15 0.15 0.16 0.20 0.32 0.42 0.42 0.36 0.29 0.22 0.19 0.16 0.14 0.13 0.11 0.08 0.07 0.07
0.22 0.38 0.51 0.52 0.49 0.43 0.41 0.46 0.45 0.40 0.41 0.39 0.37 0.28 0.19 0.16 0.12 0.10 0.10 0.10 0.12 0.12 0.13 0.11 0.10 0.15 0.23 0.29 0.33 0.34 0.34 0.33 0.31 0.30 0.25 0.17 0.13 0.14
0.38 0.55 0.66 0.72 0.67 0.58 0.52 0.49 0.45 0.41 0.38 0.36 0.37 0.29 0.21 0.17 0.13 0.10 0.09 0.09 0.10 0.12 0.12 0.09 0.06 0.06 0.09 0.12 0.13 0.18 0.22 0.22 0.24 0.27 0.27 0.22 0.16 0.17
0.68 0.71 0.72 0.74 0.73 0.61 0.50 0.44 0.34 0.28 0.28 0.29 0.28 0.24 0.18 0.12 0.09 0.07 0.06 0.06 0.06 0.06 0.06 0.05 0.05 0.07 0.09 0.10 0.11 0.09 0.13 0.16 0.18 0.19 0.19 0.18 0.15 0.15
0.73 0.75 0.81 0.78 0.71 0.54 0.38 0.30 0.20 0.16 0.17 0.16 0.13 0.10 0.08 0.06 0.04 0.03 0.04 0.03 0.02 0.02 0.04 0.05 0.06 0.07 0.10 0.11 0.11 0.09 0.10 0.15 0.18 0.18 0.17 0.16 0.14 0.14
0.39 0.44 0.47 0.45 0.39 0.28 0.19 0.14 0.08 0.06 0.06 0.06 0.05 0.04 0.04 0.03 0.03 0.03 0.04 0.03 0.03 0.04 0.04 0.04 0.05 0.05 0.05 0.08 0.10 0.09 0.09 0.12 0.13 0.12 0.13 0.15 0.16 0.16
0.12 0.13 0.12 0.11 0.09 0.07 0.05 0.04 0.04 0.03 0.03 0.02 0.03 0.03 0.03 0.03 0.02 0.03 0.04 0.04 0.05 0.04 0.04 0.04 0.03 0.04 0.05 0.07 0.09 0.08 0.06 0.05 0.08 0.13 0.14 0.14 0.14 0.15
0.03 0.04 0.04 0.03 0.02 0.01 0.01 0.02 0.02 0.02 0.01 0.02 0.01 0.02 0.02 0.03 0.03 0.03 0.03 0.04 0.04 0.04 0.03 0.03 0.03 0.03 0.04 0.06 0.07 0.07 0.06 0.05 0.06 0.09 0.17 0.26 0.23 0.16